User: anonymous   Login
Location: Peebles
(55.6412°N, 3.1714°W)
Time: 13:06:19
(UTC+00:00)
Language:

Cosmos 1726 - Orbit

View from above orbital plane
View from above orbital plane
View from above satellite
View from above satellite

Ground track
Ground track

The orbit data is extracted from the following two-line orbital elements,

1 16495U 86006A   21342.12075486  .00001551  00000-0  58050-4 0  9994
2 16495  82.4731 228.3172 0010970 208.3629 151.7013 15.26487049965424
Epoch (UTC): 08 December 2021 02:53:53
Eccentricity: 0.0010970
inclination: 82.4731°
perigee height: 479 km
apogee height: 494 km
right ascension of ascending node: 228.3172°
argument of perigee: 208.3629°
revolutions per day: 15.26487049
mean anomaly at epoch: 151.7013°
orbit number at epoch: 96542

The dashed part of the orbit path shows where the satellite is in the earth's shadow,  

DLR